Regional Weather Roundup
Issued by NWS Spokane, WA

Home | Current Version | Previous Version | Text Only | Print | Product List | Glossary On
Versions: 1 2 3 4 5 6 7 8 9 10 11 12 13 14 15 16 17 18 19 20 21 22 23 24 25 26 27 28 29 30 31 32 33 34 35 36 37 38 39 40 41 42 43 44 45 46 47 48 49 50
000
NZUS01 KOTX 300325
RWROTX

Eastern Washington/Northern Idaho Roundup
National Weather Service, Spokane WA
800 PM PDT THU SEP 29 2016

Note: "fair" indicated few or no clouds below 12,000 feet with no
significant weather and/or obstructions to visibility.

...Northeast Washington and Northern Idaho Panhandle...

CITY           SKY/WX    TMP DP  RH WIND       PRES   REMARKS
Spokane Intl   MOCLDY    70  43  37 S3        29.93S
Spokane Downto PTCLDY    65  48  54 CALM      29.92R
Coeur d Alene  PTCLDY    63  52  67 CALM      29.94R
Deer Park      MOCLDY    61  45  55 CALM      29.93R
Sandpoint      PTCLDY    54  52  94 CALM      29.94S
Bonners Ferry  FAIR      59  48  67 CALM      29.94S

...Southeast Washington and southern Idaho Panhandle...

CITY           SKY/WX    TMP DP  RH WIND       PRES   REMARKS
Walla Walla    MOCLDY    66  44  45 E7        29.90S
Pullman/Moscow LGT RAIN  68  45  43 S12       30.02R
Lewiston       LGT RAIN  71  50  47 E8        29.88S
Lowell           N/A     62  56  80 N3        29.91R
Grangeville    FAIR      64  43  45 CALM      29.98R

...Columbia Basin...

CITY           SKY/WX    TMP DP  RH WIND       PRES   REMARKS
Ephrata        MOCLDY    64  41  42 W5        29.88R
Moses Lake     PTCLDY    73  40  30 S6        29.88S
Pasco          PTCLDY    73  45  36 S8        29.89R
Richland       PTCLDY    69  49  49 CALM      29.88S
Hermiston      PTCLDY    67  46  47 S7        29.90R
Pendleton      PTCLDY    66  41  40 CALM      29.93R

...East Slopes Cascades...

CITY           SKY/WX    TMP DP  RH WIND       PRES   REMARKS
The Dalles     MOCLDY    66  45  46 W15       29.96R
Yakima         PTCLDY    69  46  43 S5        29.90R
Ellensburg     PTCLDY    61  45  55 NW21      29.92S
Stampede Pass  CLOUDY    44  42  93 VRB5      30.06F
Wenatchee      PTCLDY    70  47  43 NW12      29.88R
Omak           PTCLDY    66  39  37 N12       29.89S
Sunnyside      PTCLDY    58  46  63 N3        29.89R

...Southern British Columbia...

CITY           SKY/WX    TMP DP  RH WIND       PRES   REMARKS
Penticton      MOCLDY    52  45  76 N3        29.94S
Castlegar      MOCLDY    59  46  63 N5        29.92S
Cranbrook      PTCLDY    55  45  67 VRB2      29.98S
Osoyoos          N/A     61  46  59 N5          N/A
Creston          N/A     59  52  77 CALM        N/A

...Western Montana...

CITY           SKY/WX    TMP DP  RH WIND       PRES   REMARKS
Kalispell      CLEAR     55  49  80 CALM      29.97R
Libby            N/A     57  52  82 SE5       29.95R
Missoula       CLEAR     67  47  48 E9        29.99R

...Neighboring Cities...

CITY           SKY/WX    TMP DP  RH WIND       PRES   REMARKS
Seattle        CLOUDY    60  38  43 N6        30.07S
Portland       PTCLDY    62  47  57 NW6       30.05R
Boise          PTCLDY    76  41  28 SE13      29.97R
Great Falls    CLEAR     62  47  57 N10       30.04S
Calgary        MOCLDY    52  43  71 S3        30.07F



USA.gov is the U.S. government's official web portal to all federal, state and local government web resources and services.